Location: Austin
(30.3000°N, 97.7500°W)
Time: 06:10:47
(UTC-06:00)

SAR-Lupe-1 - Pass Details

Date: 03 March 2026
Orbit: 479 x 484 km, 98.1° (Epoch: 10 January)

Event Time Altitude Azimuth Distance (km) Brightness Sun altitude
Rises 18:49:09 0° 158° (SSE) 2,518 7.5 -4.6°
Reaches altitude 10° 18:51:13 10° 154° (SSE) 1,643 6.5 -5.1°
Maximum altitude 18:54:40 55° 76° (ENE) 580 4.1 -5.8°
Drops below altitude 10° 18:58:09 10° 358° (N) 1,654 6.8 -6.6°
Sets 19:00:14 0° 354° (N) 2,536 7.8 -7.0°
